This demonstration page uses our WeatherBlox Daily Observations layout. Learn more.

Left ArrowRight Arrow

40.92945, -100.16068

Hourly Observations for July 22, 2020

Temp ( °F °C ) Dew Point ( °F °C ) Humidity (%) Winds ( mph kmh ) Pressure ( in mb ) Visibility ( mi km ) Precip ( " mm )
12:15 am 00:15 Clear 72 22 65 18.2 79 79 SE 6 9 29.94 1014 10 16.0934 0 0
12:35 am 00:35 Clear 71 21.8 64 18 79 79 SE 6 9 29.95 1014 10 16.0934 0 0
12:55 am 00:55 Partly Cloudy 71 21.5 64 18 81 81 SE 6 9 29.95 1014 10 16.0934 0 0
1:15 am 01:15 Partly Cloudy 71 21.5 64 18 81 81 ESE 7 11 29.94 1014 10 16.0934 0 0
1:35 am 01:35 Clear 70 21.2 64 17.8 81 81 SE 8 13 29.94 1014 10 16.0934 0 0
1:55 am 01:55 Clear 70 20.9 64 17.8 83 83 SE 9 15 29.94 1014 10 16.0934 0 0
2:15 am 02:15 Partly Cloudy 70 20.9 64 17.9 83 83 SE 5 7 29.94 1014 10 16.0934 0 0
2:35 am 02:35 Mostly Cloudy 70 20.9 64 18 84 84 SE 6 9 29.94 1014 10 16.0934 0 0
2:55 am 02:55 Cloudy 69 20.8 64 18 84 84 ESE 7 11 29.95 1014 10 16.0934 0 0
3:15 am 03:15 Cloudy with Light Rain 70 21 65 18.3 85 85 ESE 5 7 29.95 1014 10 16.0934 0 0
3:35 am 03:35 Cloudy with Light Rain 68 20.2 66 18.9 92 92 Calm 29.98 1015 5 8.0467 0.02 0.508
3:55 am 03:55 Cloudy with Thunderstorms 69 20.3 66 19 92 92 E 5 7 29.97 1015 10 16.0934 0.02 0.508
4:15 am 04:15 Cloudy 69 20.5 66 18.7 89 89 SE 5 7 29.97 1015 10 16.0934 0 0
4:35 am 04:35 Cloudy 68 20.2 66 19 93 93 Calm 29.97 1015 10 16.0934 0 0
4:55 am 04:55 Cloudy 69 20.3 66 18.8 91 91 E 3 6 29.97 1015 10 16.0934 0 0
5:15 am 05:15 Mostly Cloudy 68 20.2 66 19 93 93 ENE 6 9 29.98 1015 10 16.0934 0 0
5:35 am 05:35 Partly Cloudy 68 19.8 65 18.6 93 93 NNE 8 13 29.97 1015 10 16.0934 0 0
5:55 am 05:55 Mostly Cloudy 67 19.5 65 18.5 94 94 ENE 10 17 29.98 1015 10 16.0934 0 0
6:15 am 06:15 Cloudy 68 20 65 18.2 89 89 E 9 15 29.97 1015 10 16.0934 0 0
6:35 am 06:35 Mostly Cloudy 68 20 64 18 88 88 E 14 22 29.95 1014 10 16.0934 0 0
6:55 am 06:55 Mostly Cloudy with Light Rain 67 19.5 64 17.9 91 91 ESE 7 11 29.98 1015 10 16.0934 0.01 0.254
7:15 am 07:15 Cloudy 67 19.7 64 18 90 90 SE 7 11 29.96 1015 10 16.0934 0 0
7:35 am 07:35 Cloudy with Thunderstorms 68 19.9 65 18.3 91 91 SSW 9 15 29.99 1016 10 16.0934 0 0
7:55 am 07:55 Cloudy with Rain 67 19.4 64 18 92 92 SSW 3 6 30 1016 4 6.43736 0.16 4.064
8:15 am 08:15 Cloudy with Rain 67 19.6 64 18 91 91 Calm 30 1016 7 11.26538 0.02 0.508
8:35 am 08:35 Cloudy with Rain 67 19.5 65 18.2 92 92 SE 7 11 29.99 1015 7 11.26538 0.05 1.27
8:55 am 08:55 Cloudy with Light Rain 68 19.8 65 18.2 91 91 SE 15 24 29.97 1015 7 11.26538 0.08 2.032
9:15 am 09:15 Cloudy with Light Rain 67 19.5 65 18.2 92 92 ENE 9 15 29.98 1015 10 16.0934 0 0
9:35 am 09:35 Mostly Cloudy 67 19.6 65 18.5 93 93 E 7 11 29.98 1015 10 16.0934 0 0
9:55 am 09:55 Mostly Cloudy 68 20 66 18.8 93 93 ESE 9 15 29.97 1015 10 16.0934 0 0
10:15 am 10:15 Sunny 69 20.5 67 19.2 92 92 SE 10 17 29.96 1014 10 16.0934 0 0
10:35 am 10:35 Sunny 70 21.1 67 19.7 92 92 ESE 9 15 29.95 1014 10 16.0934 0 0
10:55 am 10:55 Sunny 73 22.7 69 20.5 87 87 SE 10 17 29.93 1014 10 16.0934 0 0
11:15 am 11:15 Sunny 74 23.5 69 20.4 83 83 SSE 13 20 29.92 1013 10 16.0934 0 0
11:35 am 11:35 Sunny 77 24.9 70 21 79 79 SSE 12 19 29.91 1013 10 16.0934 0 0
11:55 am 11:55 Partly Cloudy 79 26.1 71 21.6 76 76 SSE 14 22 29.89 1012 10 16.0934 0 0
12:15 pm 12:15 Partly Cloudy 80 26.7 71 21.9 75 75 SSE 15 24 29.88 1012 10 16.0934 0 0
12:35 pm 12:35 Sunny 82 27.6 71 21.8 71 71 SSE 15 24 29.87 1011 10 16.0934 0 0
12:55 pm 12:55 Sunny 82 27.8 72 22 71 71 SSE 17 28 29.87 1011 10 16.0934 0 0
1:15 pm 13:15 Sunny 83 28.1 71 21.8 69 69 SSE 15 24 29.86 1011 10 16.0934 0 0
1:35 pm 13:35 Sunny 83 28.5 71 21.6 66 66 SE 14 22 29.86 1011 10 16.0934 0 0
1:55 pm 13:55 Partly Cloudy 84 28.8 71 21.6 65 65 ESE 14 22 29.85 1011 10 16.0934 0 0
2:15 pm 14:15 Partly Cloudy 85 29.4 71 21.6 63 63 SSE 16 26 29.84 1011 10 16.0934 0 0
2:35 pm 14:35 Partly Cloudy 84 29.1 70 21.1 62 62 ESE 16 26 29.85 1011 10 16.0934 0 0
2:55 pm 14:55 Partly Cloudy 85 29.3 71 21.4 62 62 SE 15 24 29.83 1010 10 16.0934 0 0
4:35 pm 16:35 Sunny 87 30.4 68 20.1 54 54 SSE 20 31 29.82 1010 10 16.0934 0 0
4:55 pm 16:55 Mostly Cloudy 87 30.6 69 20.7 56 56 SSE 17 28 29.81 1010 10 16.0934 0 0
5:15 pm 17:15 Mostly Cloudy 87 30.7 69 20.7 55 55 SSE 17 28 29.8 1009 10 16.0934 0 0
5:35 pm 17:35 Partly Cloudy 87 30.7 69 20.4 54 54 SSE 17 28 29.79 1009 10 16.0934 0 0
5:55 pm 17:55 Sunny 87 30.7 68 19.9 53 53 SE 16 26 29.78 1009 10 16.0934 0 0
6:15 pm 18:15 Sunny 87 30.6 68 20 53 53 SE 17 28 29.77 1008 10 16.0934 0 0
6:35 pm 18:35 Sunny 87 30.6 69 20.7 56 56 SSE 17 28 29.77 1008 10 16.0934 0 0
6:55 pm 18:55 Sunny 86 30.2 69 20.3 55 55 SE 16 26 29.79 1009 10 16.0934 0 0
7:15 pm 19:15 Sunny 86 30 69 20.5 57 57 SE 15 24 29.78 1008 10 16.0934 0 0
7:35 pm 19:35 Sunny 85 29.7 70 20.9 59 59 SE 13 20 29.79 1009 10 16.0934 0 0
7:55 pm 19:55 Sunny 85 29.4 70 21.2 61 61 SE 13 20 29.79 1009 10 16.0934 0 0
8:15 pm 20:15 Sunny 84 28.7 70 21.2 64 64 SE 13 20 29.8 1009 10 16.0934 0 0
8:35 pm 20:35 Sunny 82 28 71 21.4 67 67 SE 10 17 29.81 1009 10 16.0934 0 0
8:55 pm 20:55 Sunny 81 27.2 71 21.5 71 71 ESE 12 19 29.82 1010 10 16.0934 0 0
9:15 pm 21:15 Clear 80 26.6 71 21.5 74 74 SE 12 19 29.83 1010 10 16.0934 0 0
9:35 pm 21:35 Clear 79 26.2 71 21.4 75 75 SE 10 17 29.83 1010 10 16.0934 0 0
9:55 pm 21:55 Clear 78 25.8 70 21.2 76 76 ESE 10 17 29.84 1011 10 16.0934 0 0
10:15 pm 22:15 Clear 78 25.5 71 21.5 79 79 ESE 10 17 29.85 1011 10 16.0934 0 0
10:35 pm 22:35 Clear 77 25.2 71 21.5 80 80 ESE 12 19 29.86 1011 10 16.0934 0 0
10:55 pm 22:55 Clear 77 25 71 21.5 81 81 ESE 10 17 29.87 1012 10 16.0934 0 0
11:15 pm 23:15 Clear 76 24.6 71 21.5 83 83 ESE 12 19 29.87 1012 10 16.0934 0 0
11:35 pm 23:35 Clear 76 24.3 71 21.5 84 84 SE 12 19 29.88 1012 10 16.0934 0 0
11:55 pm 23:55 Clear 75 24 71 21.5 86 86 SE 10 17 29.88 1012 10 16.0934 0 0

Powered by AerisWeather